This is the latest recevied weather packets stored in our database for station/object SQ7IQO. If no packets are shown the sender has not sent any weather packets the latest 10 day(s).
| Time | Temp. | Humidity | Pressure | Rain* | Wind** | Luminosity | Snow |
|---|---|---|---|---|---|---|---|
| 1788086443 | 26.11° C | 49% | 1016.3 hPa | 0 mm | 0 m/s | - | - |
| 1788086383 | 26.11° C | 47% | 1016.3 hPa | 0 mm | 0 m/s | - | - |
| 1788086323 | 26.11° C | 46% | - | 0 mm | 0.45 m/s, ° | - | - |
| 1788086263 | 26.11° C | 48% | 1002.8 hPa | 0 mm | 0.89 m/s, ° | - | - |
| 1788086203 | 26.11° C | 48% | 1016.4 hPa | 0 mm | 0 m/s | - | - |
| 1788086143 | 26.11° C | 48% | 1016.3 hPa | 0 mm | 0.45 m/s, ° | - | - |
| 1788086083 | 26.11° C | 47% | 1016.3 hPa | 0 mm | 0.45 m/s, ° | - | - |
| 1788086023 | 26.11° C | 47% | 1016.3 hPa | 0 mm | 0 m/s | - | - |
| 1788085963 | 26.11° C | 47% | 1016.2 hPa | 0 mm | 0 m/s | - | - |
| 1788085903 | 26.11° C | 48% | 1016.7 hPa | 0 mm | 0.45 m/s, ° | - | - |
| 1788085843 | 26.11° C | 47% | 1016.3 hPa | 0 mm | 0.45 m/s, ° | - | - |
| 1788085783 | 26.11° C | 48% | 1016.4 hPa | 0 mm | 0 m/s | - | - |
| 1788085723 | 25.56° C | 47% | 1259.7 hPa | 0 mm | 0 m/s | - | - |
| 1788085663 | 25.56° C | 48% | 1016.4 hPa | 0 mm | 0 m/s | - | - |
| 1788085603 | 25.56° C | 47% | 1016.4 hPa | 0 mm | 0.45 m/s, ° | - | - |
| 1788085543 | 25.56° C | 47% | 1016.4 hPa | 0 mm | 0.45 m/s, ° | - | - |
| 1788085483 | 25.56° C | 47% | 1016.5 hPa | 0 mm | 0.89 m/s, ° | - | - |
| 1788085423 | 25.56° C | 50% | 1016.5 hPa | 0 mm | 0.45 m/s, ° | - | - |
| 1788085363 | 25.56° C | 48% | 1016.5 hPa | 0 mm | 0 m/s | - | - |
| 1788085303 | 25.56° C | 48% | 1016.5 hPa | 0 mm | 0 m/s | - | - |
| 1788085243 | 25° C | 48% | 1016.5 hPa | 0 mm | 0.45 m/s, ° | - | - |
| 1788085183 | 25° C | 48% | 1016.5 hPa | 0 mm | 0.45 m/s, ° | - | - |
| 1788085123 | 25° C | 50% | 1016.5 hPa | 0 mm | 0.89 m/s, ° | - | - |
| 1788085063 | 25° C | 48% | 1016.5 hPa | 0 mm | 0 m/s | - | - |
| 1788085003 | 25° C | 48% | 1016.5 hPa | 0 mm | 0 m/s | - | - |
* Rain latest hour (hover to see other rain measurements)
** Current wind speed in m/s (hover to see current wind gust speed)